Location: Agadir Mansour Mhndou
(31.2424°N, 8.7730°W)
Time: 18:03:03
(UTC+00:00)

GPS 2-04 Rocket1 - Pass Details

Date: 16 October 2021
Orbit: 412 x 536 km, 35.6° (Epoch: 08 December)

Event Time Altitude Azimuth Distance (km) Brightness Sun altitude
Rises 19:43:10 0° 288° (WNW) 2,515 7.5 -22.4°
Reaches altitude 10° 19:45:24 10° 288° (WNW) 1,613 6.2 -22.8°
Enters shadow 19:48:23 55° 280° (W) 545 3.0 -23.5°
